Карточка аэропорта UHMM

Внимание!
Информация на этой странице в стадии наполнения.
Если вы не увидели какой-то информации, или заметили неточность - пожалуйста сообщите нам!
Спасибо!
Команда RU-STAFF
Название аэропортаСокол
Название аэропорта (англ.)Sokol
Превышение575 ft. (175.3 m.)
Координаты59°54.648', 150°43.2'
Высота перехода10000 ft
Эшелон переходаQNH>=1013hPa: FL110; 1013hPa>QNH>=977hPa: FL120; QNH<977hPa: FL130
Коды ответчика6540-6577
Зона ОрВДМагадан РПИ (UHMM)
Данные METARUHMM 181200Z 09005MPS 9999 FEW040 04/00 Q1000 RMK QFE736 R28/10003MPS
Проноз погоды (TAF)UHMM 181054Z 1812/1918 11008G13MPS 9999 SCT040 BKN070 BECMG 1817/1819 BKN030CB OVC070 TEMPO 1821/1918 10013G18MPS
NOTAMshow/hide NOTAM
AWOS   TABLE

Информация о ВПП


Диспетчерские позиции

Позывной Наименование органа УВД Частота
UHMM_APPМагадан-Подход119.3
UHMM_TWRМагадан-Вышка120.8



Спутниковое изображение